Regional Weather Roundup
Issued by NWS

Home | Current Version | Previous Version | Graphics & Text | Print | Product List | Glossary Off
Versions: 1 2 3 4 5 6 7 8 9 10 11 12 13 14 15 16 17 18 19 20 21 22 23 24 25 26 27 28 29 30 31 32 33 34 35 36 37 38 39 40 41 42 43 44 45 46 47 48 49 50

000
ASUS43 KTOP 200008
RWRKS

WEATHER ROUNDUP FOR KANSAS
NATIONAL WEATHER SERVICE GOODLAND KS
600 PM CST FRI JAN 19 2018

NOTE:  "FAIR" INDICATES FEW OR NO CLOUDS BELOW 12,000 FEET WITH NO
SIGNIFICANT WEATHER AND/OR OBSTRUCTIONS TO VISIBILITY.

KSZ001>006-013>018-027>032-041>047-200100-
NORTHWEST KANSAS

CITY           SKY/WX    TMP DP  RH WIND       PRES   REMARKS
GOODLAND       CLOUDY    50  21  32 NE8       29.70R
6HR MIN TEMP:  50; 6HR MAX TEMP:  74;

HAYS           CLOUDY    54  19  25 S9        29.68R
HILL CITY      CLOUDY    52  18  26 E6        29.66R
6HR MIN TEMP:  52; 6HR MAX TEMP:  70;

RUSSELL        CLOUDY    52  22  30 S12       29.67R
6HR MIN TEMP:  50; 6HR MAX TEMP:  64;

$$

KSZ061>065-074>080-084>089-200100-
SOUTHWEST KANSAS

CITY           SKY/WX    TMP DP  RH WIND       PRES   REMARKS
DODGE CITY     CLOUDY    56  17  21 S9        29.69S
6HR MIN TEMP:  55; 6HR MAX TEMP:  67;

ELKHART        MOCLDY    58  21  23 S13       29.72R
GARDEN CITY    CLOUDY    54  15  21 S10       29.67F
6HR MIN TEMP:  54; 6HR MAX TEMP:  71;

GREAT BEND     CLOUDY    49  21  33 SE12      29.70S
LIBERAL        CLOUDY    54  16  22 S10       29.72R
PRATT          CLOUDY    55  14  19 S16       29.73S
6HR MIN TEMP:  50; 6HR MAX TEMP:  61;

$$

KSZ066>073-081>083-090>101-200100-
SOUTHEAST KANSAS

CITY           SKY/WX    TMP DP  RH WIND       PRES   REMARKS
CHANUTE        CLOUDY    44  27  51 S14       29.86F
6HR MIN TEMP:  44; 6HR MAX TEMP:  53;

COFFEYVILLE    CLOUDY    47  27  45 S10       29.89S
6HR MIN TEMP:  47; 6HR MAX TEMP:  54;

HUTCHINSON     CLOUDY    50  23  34 S13       29.74S
6HR MIN TEMP:  46; 6HR MAX TEMP:  57;

MEDICINE LODGE   N/A     54  18  24 S12G22    29.75R
NEWTON         CLOUDY    47  24  40 S17       29.77S
PARSONS        CLOUDY    46  27  47 S7        29.89S
6HR MIN TEMP:  44; 6HR MAX TEMP:  53;

WICHITA INTL   CLOUDY    52  24  33 S16       29.78R
6HR MIN TEMP:  47; 6HR MAX TEMP:  58;

WICHITA JABRA  CLOUDY    52  23  32 S14       29.79R
6HR MIN TEMP:  47; 6HR MAX TEMP:  56;

WICHITA MCCONL CLOUDY    51  23  32 S14       29.79R
WINFIELD       CLOUDY    51  23  33 S13       29.84R
6HR MIN TEMP:  49; 6HR MAX TEMP:  59;

$$

KSZ007>012-019>026-033>040-048>060-102>105-200100-
NORTHEAST KANSAS

CITY           SKY/WX    TMP DP  RH WIND       PRES   REMARKS
CONCORDIA      CLOUDY    46  25  43 S17       29.69S
6HR MIN TEMP:  43; 6HR MAX TEMP:  49;

EMPORIA        CLOUDY    46  25  43 S15       29.80R
6HR MIN TEMP:  46; 6HR MAX TEMP:  53;

LAWRENCE       CLOUDY    41  30  65 SE10      29.80F
6HR MIN TEMP:  41; 6HR MAX TEMP:  47;

MANHATTAN      CLOUDY    48  25  40 S7        29.74R
6HR MIN TEMP:  46; 6HR MAX TEMP:  56;

MARYSVILLE     CLOUDY    43  28  56 S8        29.73R
OLATHE IND     CLOUDY    44  28  53 S16       29.82F
6HR MIN TEMP:  43; 6HR MAX TEMP:  47;

OLATHE EXE     CLOUDY    41  28  60 S12       29.82S
6HR MIN TEMP:  40; 6HR MAX TEMP:  47;

SALINA         CLOUDY    45  28  51 S10       29.73S
6HR MIN TEMP:  43; 6HR MAX TEMP:  51;

TOPEKA BILLARD CLOUDY    46  29  51 S10       29.77F
6HR MIN TEMP:  41; 6HR MAX TEMP:  51;

TOPEKA FORBES  CLOUDY    45  29  53 S12       29.78S
6HR MIN TEMP:  42; 6HR MAX TEMP:  52;

$$



USA.gov is the U.S. government's official web portal to all federal, state and local government web resources and services.